Regional Weather Roundup
Issued by NWS

Home | Current Version | Previous Version | Graphics & Text | Print | Product List | Glossary On
Versions: 1 2 3 4 5 6 7 8 9 10 11 12 13 14 15 16 17 18 19 20 21 22 23 24 25 26 27 28 29 30 31 32 33 34 35 36 37 38 39 40 41 42 43 44 45 46 47 48 49 50
000
ASUS43 KBIS 030610
RWRND

NORTH DAKOTA REGIONAL WEATHER ROUNDUP
NATIONAL WEATHER SERVICE BISMARCK ND
100 AM CDT SUN MAY 03 2015

NOTE: "FAIR" INDICATES FEW OR NO CLOUDS BELOW 12,000 FEET WITH NO
SIGNIFICANT WEATHER AND/OR OBSTRUCTIONS TO VISIBILITY.


NDZ001>003-009>011-017-030700-
NORTHWEST NORTH DAKOTA

CITY           SKY/WX    TMP DP  RH WIND       PRES   REMARKS
WILLISTON      MOCLDY    52  34  50 N10       29.84R
6HR MIN TEMP:  52; 6HR MAX TEMP:  75;

MINOT          PTCLDY    54  36  50 NW17      29.76R
MINOT AFB      PTCLDY    53  37  53 NW17      29.75R
$$

NDZ018>021-031>035-040>046-030700-
SOUTHWEST NORTH DAKOTA

CITY           SKY/WX    TMP DP  RH WIND       PRES   REMARKS
BISMARCK       MOCLDY    58  35  42 NW3       29.73R
6HR MIN TEMP:  56; 6HR MAX TEMP:  80;

DICKINSON      CLOUDY    56  35  45 NE14      29.78R
GARRISON         N/A     52  39  61 N10       29.77R
6HR MIN TEMP:  51; 6HR MAX TEMP:  78;

HETTINGER ARPT PTCLDY    47  30  51 N7        29.76R
$$

NDZ004>008-012>016-024-026-027-054-030700-
NORTHEAST NORTH DAKOTA

CITY           SKY/WX    TMP DP  RH WIND       PRES   REMARKS
GRAND FORKS    CLEAR     47  43  86 W6        29.60R
GRND FRKS AFB  CLEAR     55  43  62 N12       29.61R
DEVILS LAKE    CLEAR     52  36  54 N10       29.68R
$$

NDZ022-023-025-028>030-036>039-047>053-030700-
SOUTHEAST NORTH DAKOTA

CITY           SKY/WX    TMP DP  RH WIND       PRES   REMARKS
FARGO          PTCLDY    58  50  75 S12       29.62R
6HR MIN TEMP:  58; 6HR MAX TEMP:  68; 6HR PCP:  0.01;

JAMESTOWN      MOCLDY    53  38  56 NW6       29.65S
$$




USA.gov is the U.S. government's official web portal to all federal, state and local government web resources and services.